Point Mugu, CA

10:53 PM PDT on April 23, 2017 (GMT -0700)
Point Mugu Naval Air Station

Weather History for KNTD - November, 2013

Change the Weather History Date:

Sunday, November 24, 2013

  Actual Average Record
Temperature  
Mean Temperature 62 °F -  
Max Temperature 70 °F 63 °F 81 °F (2016)
Min Temperature 52 °F 45 °F 41 °F (2010)
Degree Days  
Heating Degree Days 4    
Growing Degree Days 12 (Base 50)    
Moisture  
Dew Point 43 °F    
Average Humidity 55    
Maximum Humidity 80    
Minimum Humidity 33    
Precipitation  
Precipitation 0.00 in - - ()
Sea Level Pressure  
Sea Level Pressure 30.15 in    
Wind  
Wind Speed 10 mph (NE)    
Max Wind Speed 15 mph    
Max Gust Speed -    
Visibility 8 miles    
Events      
Averages and records for this station are not official NWS values.
T = Trace of Precipitation, MM = Missing Value Source: NWS Daily Summary

Daily Weather History Graph

Daily Weather History Graph

Search for Another Location

Airport or City:

Trip Planner

Search our weather history database for the weather conditions in past years. The results will help you decide how hot, cold, wet, or windy it might be!

Date:

Astronomy

Nov. 24, 2013 Rise Set
Actual Time 6:37 AM PST 4:48 PM PST
Civil Twilight 6:10 AM PST 5:15 PM PST
Nautical Twilight 5:40 AM PST 5:46 PM PST
Astronomical Twilight 5:10 AM PST 6:16 PM PST
Moon 11:09 PM PST 11:36 AM PST
Length of Visible Light 11h 04m
Length of Day
10h 10m
Waning Gibbous, 59% of the Moon is Illuminated
Nov 24
Waning Gibbous
Nov 25
Last Quarter
Dec 2
New
Dec 9
First Quarter
Dec 17
Full

Hourly Weather History & Observations

Time (PST) Temp. Dew Point Humidity Pressure Visibility Wind Dir Wind Speed Gust Speed Precip Events Conditions
12:54 AM 59.0 °F 41.0 °F 51% 30.08 in 10.0 mi ENE 13.8 mph - N/A   Clear
1:54 AM 59.0 °F 41.0 °F 51% 30.09 in 10.0 mi ENE 15.0 mph - N/A   Clear
2:54 AM 60.1 °F 41.0 °F 49% 30.09 in 10.0 mi ENE 13.8 mph - N/A   Clear
3:54 AM 59.0 °F 41.0 °F 51% 30.09 in 10.0 mi NE 9.2 mph - N/A   Clear
4:54 AM 59.0 °F 41.0 °F 51% 30.11 in 10.0 mi NE 8.1 mph - N/A   Clear
5:54 AM 55.9 °F 41.0 °F 57% 30.12 in 10.0 mi ENE 10.4 mph - N/A   Clear
6:54 AM 57.0 °F 39.9 °F 53% 30.14 in 10.0 mi ENE 9.2 mph - N/A   Clear
7:03 AM 57.0 °F 39.9 °F 53% 30.13 in 7.0 mi ENE 10.4 mph - N/A   Partly Cloudy
7:54 AM 60.1 °F 41.0 °F 49% 30.15 in 7.0 mi ENE 9.2 mph - N/A   Scattered Clouds
8:54 AM 64.9 °F 39.9 °F 40% 30.17 in 7.0 mi ENE 11.5 mph - N/A   Partly Cloudy
9:54 AM 68.0 °F 39.9 °F 36% 30.18 in 7.0 mi ENE 11.5 mph - N/A   Partly Cloudy
10:54 AM 70.0 °F 39.9 °F 33% 30.17 in 7.0 mi NE 6.9 mph - N/A   Partly Cloudy
11:54 AM 69.1 °F 39.9 °F 35% 30.15 in 7.0 mi South 9.2 mph - N/A   Partly Cloudy
12:54 PM 69.1 °F 42.1 °F 38% 30.13 in 7.0 mi South 10.4 mph - N/A   Partly Cloudy
1:54 PM 66.9 °F 45.0 °F 45% 30.13 in 7.0 mi SW 6.9 mph - N/A   Partly Cloudy
2:54 PM 66.0 °F 46.9 °F 50% 30.14 in 7.0 mi West 6.9 mph - N/A   Partly Cloudy
3:54 PM 64.9 °F 46.0 °F 50% 30.14 in 7.0 mi WSW 5.8 mph - N/A   Partly Cloudy
4:54 PM 61.0 °F 50.0 °F 67% 30.14 in 7.0 mi Calm Calm - N/A   Clear
5:54 PM 57.9 °F 48.9 °F 72% 30.16 in 7.0 mi Calm Calm - N/A   Clear
6:54 PM 55.9 °F 50.0 °F 80% 30.17 in 7.0 mi Calm Calm - N/A   Clear
7:54 PM 57.0 °F 44.1 °F 62% 30.19 in 7.0 mi Calm Calm - N/A   Clear
8:54 PM 54.0 °F 46.0 °F 75% 30.20 in 7.0 mi NNE 5.8 mph - N/A   Clear
9:54 PM 53.1 °F 46.0 °F 77% 30.20 in 7.0 mi North 4.6 mph - N/A   Clear
10:54 PM 53.1 °F 45.0 °F 74% 30.20 in 7.0 mi NNW 5.8 mph - N/A   Clear
11:54 PM 52.0 °F 45.0 °F 77% 30.20 in 10.0 mi North 6.9 mph - N/A   Clear